FW2581 Weather Reports


time (UTC)temp
F
wind
direction
speed
knots
gust
knots
rain 1hr
in
rain 24hr
in
rain mn
in
humidity
%
barometer
mb
20260507234534 75 353 7.0 12.2 0.00 0.00 0.00 26 1015.2
20260507231528 75 350 6.1 20.0 0.00 0.00 0.00 28 1015.4
20260507230029 74 26 6.1 11.3 0.00 0.00 0.00 30 1015.5
20260507224648 75 12 5.2 11.3 0.00 0.00 0.00 29 1015.7
20260507223029 75 27 4.3 9.6 0.00 0.00 0.00 31 1015.9
20260507221536 75 54 5.2 10.4 0.00 0.00 0.00 32 1016.1
20260507220037 74 53 6.1 13.9 0.00 0.00 0.00 33 1016.2
20260507214535 75 49 6.1 12.2 0.00 0.00 0.00 32 1016.3
20260507213036 75 27 4.3 8.7 0.00 0.00 0.00 32 1016.6
20260507210035 74 5 3.5 9.6 0.00 0.00 0.00 33 1016.8
20260507204529 74 47 3.5 9.6 0.00 0.00 0.00 35 1017.1
20260507203032 73 71 4.3 8.7 0.00 0.00 0.00 36 1017.3
20260507200032 73 69 4.3 11.3 0.00 0.00 0.00 39 1017.5
20260507194531 72 63 3.5 8.7 0.00 0.00 0.00 39 1017.6
20260507193032 71 47 4.3 9.6 0.00 0.00 0.00 41 1017.6
20260507191605 70 70 3.5 7.8 0.00 0.00 0.00 43 1017.8
20260507190033 69 44 4.3 8.7 0.00 0.00 0.00 45 1018.0
20260507184533 68 62 3.5 9.6 0.00 0.00 0.00 49 1018.2
20260507181533 67 50 4.3 10.4 0.00 0.00 0.00 51 1018.3
20260507180031 66 63 6.1 11.3 0.00 0.00 0.00 53 1018.4
20260507174642 66 69 5.2 10.4 0.00 0.00 0.00 54 1018.4
20260507173034 66 74 6.1 14.8 0.00 0.00 0.00 51 1018.4
20260507170031 64 291 2.6 6.1 0.00 0.00 0.00 55 1018.5
20260507164534 61 276 3.5 6.1 0.00 0.00 0.00 63 1018.5
20260507163037 61 267 4.3 8.7 0.00 0.00 0.00 66 1018.6
20260507160141 56 264 3.5 6.1 0.00 0.00 0.00 83 1019.1
20260507154536 52 290 0.0 4.3 0.00 0.00 0.00 91 1019.5
20260507151531 49 225 0.0 1.7 0.00 0.00 0.00 94 1019.6
20260507150047 48 225 0.0 0.9 0.00 0.00 0.00 95 1019.6
20260507144607 47 246 0.0 0.9 0.00 0.00 0.00 95 1019.6
20260507141535 44 202 0.0 0.9 0.00 0.00 0.00 94 1019.5
20260507140033 42 203 1.7 3.5 0.00 0.00 0.00 93 1019.1
20260507133029 41 247 0.0 2.6 0.00 0.00 0.00 93 1019.1
20260507131531 40 247 0.0 1.7 0.00 0.00 0.00 92 1019.0
20260507124532 41 247 0.0 1.7 0.00 0.00 0.00 92 1018.9
20260507123029 41 218 0.9 1.7 0.00 0.00 0.00 91 1018.7
20260507121530 41 269 0.0 2.6 0.00 0.00 0.00 91 1018.7
20260507120106 41 337 0.0 0.0 0.00 0.00 0.00 90 1018.6
20260507114535 42 337 0.0 0.0 0.00 0.00 0.00 90 1018.5
20260507113032 43 337 0.0 2.6 0.00 0.00 0.00 89 1018.4
20260507110052 44 319 0.0 3.5 0.00 0.00 0.00 87 1018.3
20260507104642 45 154 0.9 2.6 0.00 0.00 0.00 85 1018.2
20260507103107 46 178 0.0 2.6 0.00 0.00 0.00 84 1018.2
20260507100037 48 135 0.0 3.5 0.00 0.00 0.00 81 1018.1
20260507091529 49 206 1.7 3.5 0.00 0.00 0.00 76 1018.2
20260507090108 50 208 2.6 5.2 0.00 0.00 0.00 76 1018.3
20260507084530 49 189 2.6 5.2 0.00 0.00 0.00 77 1018.3
20260507083038 49 171 1.7 4.3 0.00 0.00 0.00 74 1018.4
20260507081537 50 30 0.9 3.5 0.00 0.00 0.00 72 1018.3
20260507080030 51 205 1.7 2.6 0.00 0.00 0.00 69 1018.3
20260507074536 53 172 2.6 4.3 0.00 0.00 0.00 66 1018.2
20260507073037 55 174 0.9 5.2 0.00 0.00 0.00 63 1018.1
20260507070033 57 70 2.6 4.3 0.00 0.00 0.00 59 1018.1
20260507064531 58 79 3.5 6.1 0.00 0.00 0.00 57 1018.3
20260507063035 60 135 2.6 6.1 0.00 0.00 0.00 54 1018.3
20260507061535 61 304 3.5 10.4 0.00 0.00 0.00 53 1018.2
20260507060031 61 339 7.0 12.2 0.00 0.00 0.00 53 1018.1
20260507054531 61 339 7.8 15.6 0.00 0.00 0.00 52 1018.3
20260507053034 61 338 7.0 13.0 0.00 0.00 0.00 52 1018.5
20260507051530 60 335 6.1 12.2 0.00 0.00 0.00 51 1018.7
20260507050037 61 320 4.3 8.7 0.00 0.00 0.00 50 1018.8
20260507044528 61 301 5.2 9.6 0.00 0.00 0.00 50 1018.9
20260507043030 61 298 5.2 12.2 0.00 0.00 0.00 50 1018.8
20260507040043 62 295 4.3 11.3 0.00 0.00 0.00 51 1018.6
20260507034532 63 287 5.2 12.2 0.00 0.00 0.00 50 1018.5
20260507033030 63 291 5.2 12.2 0.00 0.00 0.00 48 1018.4
20260507030031 65 302 8.7 18.2 0.00 0.00 0.00 46 1017.9
20260507024610 66 314 7.8 16.5 0.00 0.00 0.00 46 1017.7
20260507023031 66 318 7.0 20.0 0.00 0.00 0.00 45 1017.6
20260507021535 67 317 5.2 15.6 0.00 0.00 0.00 44 1017.7
20260507014642 69 302 6.1 14.8 0.00 0.00 0.00 40 1017.6
20260507013031 69 303 7.8 18.2 0.00 0.00 0.00 40 1017.5
20260507011607 71 302 7.8 18.2 0.00 0.00 0.00 39 1017.2
20260507004607 71 298 7.8 15.6 0.00 0.00 0.00 39 1017.1
20260507003150 71 296 8.7 17.4 0.00 0.00 0.00 38 1017.1
20260507001533 72 294 8.7 19.1 0.00 0.00 0.00 37 1017.0